sat.trackr.live / text

‹ back to catalog

STARLINK-34630

NORAD 64948 · 2025-158S

PAYLOAD ACTIVE UNKNOWN

§ Identity

Operator
Country
US
Launch date
2025-07-27
Launch site
AFWTR
Launch vehicle
Mass (kg)
RCS (m²)

Purposes: comms

External: N2YO · Heavens-Above · Gunter

§ Orbital elements

Epoch: 2026-09-20T14:03:41.896512Z

Period
93.91 min
Inclination
97.2840°
Eccentricity
0.0001639
Mean motion
15.33464185 rev/d
Perigee alt
464.4 km
Apogee alt
466.6 km
Semi-major
6,843.6 km
B*
5.3303e-4
RAAN
121.8089°
Arg perigee
101.1064°
Mean anomaly
259.0363°
Rev number
6,471

§ Raw data

STARLINK-346301 64948U 25158S   26263.58590158  .00017183  00000+0  53303-3 0  99982 64948  97.2840 121.8089 0001639 101.1064 259.0363 15.33464185 64710

JSON: /api/v1/satellites/64948 · /tle

For live sub-satellite position, see the globe view (requires WebGL).

§ Visibility from observer

Set your observer location to see the next 7 days of passes ≥ 10°. The values pass through the URL so the page stays shareable.

No JS? Fill the form by hand. The geolocation button needs JavaScript.